Asheboro, NC

12:42 AM EDT on March 29, 2017 (GMT -0400)
Asheboro Municipal

Weather History for KHBI - January, 2014

Change the Weather History Date:

Saturday, January 18, 2014

  Actual Average Record
Temperature  
Mean Temperature 34 °F -  
Max Temperature 38 °F 48 °F 75 °F (1943)
Min Temperature 28 °F 30 °F 10 °F (1977)
Degree Days  
Heating Degree Days 32    
Moisture  
Dew Point 13 °F    
Average Humidity 47    
Maximum Humidity 68    
Minimum Humidity 33    
Precipitation  
Precipitation 0.00 in - - ()
Sea Level Pressure  
Sea Level Pressure 30.01 in    
Wind  
Wind Speed 5 mph (West)    
Max Wind Speed 14 mph    
Max Gust Speed 22 mph    
Visibility 10 miles    
Events      
Averages and records for this station are not official NWS values.
T = Trace of Precipitation, MM = Missing Value Source: NWS Daily Summary

Daily Weather History Graph

Daily Weather History Graph

Search for Another Location

Airport or City:

Trip Planner

Search our weather history database for the weather conditions in past years. The results will help you decide how hot, cold, wet, or windy it might be!

Date:

Astronomy

Jan. 18, 2014 Rise Set
Actual Time 7:27 AM EST 5:32 PM EST
Civil Twilight 7:00 AM EST 6:00 PM EST
Nautical Twilight 6:28 AM EST 6:31 PM EST
Astronomical Twilight 5:58 AM EST 7:02 PM EST
Moon 8:06 PM EST (1/18) 8:32 AM EST (1/18)
Length of Visible Light 11h 00m
Length of Day
10h 05m
Waning Gibbous, 94% of the Moon is Illuminated
Jan 18
Waning Gibbous
Jan 24
Last Quarter
Jan 30
New
Feb 6
First Quarter
Feb 14
Full

Hourly Weather History & Observations

Time (EST) Temp. Windchill Dew Point Humidity Pressure Visibility Wind Dir Wind Speed Gust Speed Precip Events Conditions
12:15 AM 39.6 °F 36.3 °F 25.0 °F 56% 29.91 in 10.0 mi WNW 4.6 mph - N/A   Clear
12:35 AM 39.2 °F 37.0 °F 25.3 °F 58% 29.91 in 10.0 mi NW 3.5 mph - N/A   Clear
12:55 AM 38.3 °F - 25.3 °F 60% 29.91 in 10.0 mi Calm Calm - N/A   Clear
1:15 AM 37.4 °F 32.8 °F 25.0 °F 61% 29.90 in 10.0 mi WNW 5.8 mph - N/A   Clear
1:35 AM 36.7 °F 32.0 °F 23.9 °F 60% 29.91 in 10.0 mi WNW 5.8 mph - N/A   Clear
1:55 AM 36.1 °F - 24.1 °F 62% 29.91 in 10.0 mi Calm Calm - N/A   Clear
2:15 AM 34.7 °F - 25.2 °F 68% 29.91 in 10.0 mi Calm Calm - N/A   Clear
2:35 AM 34.2 °F - 23.9 °F 66% 29.92 in 10.0 mi Calm Calm - N/A   Clear
2:55 AM 33.3 °F - 23.0 °F 66% 29.92 in 10.0 mi Calm Calm - N/A   Clear
3:15 AM 32.4 °F 29.1 °F 23.0 °F 68% 29.92 in 10.0 mi West 3.5 mph - N/A   Clear
3:35 AM 32.2 °F - 21.6 °F 65% 29.92 in 10.0 mi Calm Calm - N/A   Clear
3:55 AM 32.0 °F - 20.7 °F 63% 29.93 in 10.0 mi Calm Calm - N/A   Clear
4:15 AM 31.8 °F 27.3 °F 19.0 °F 59% 29.93 in 10.0 mi West 4.6 mph - N/A   Clear
4:35 AM 31.1 °F 27.7 °F 17.1 °F 56% 29.93 in 10.0 mi West 3.5 mph - N/A   Clear
4:55 AM 30.9 °F - 15.4 °F 53% 29.93 in 10.0 mi Calm Calm - N/A   Scattered Clouds
5:15 AM 30.9 °F 25.2 °F 13.8 °F 49% 29.94 in 10.0 mi WNW 5.8 mph - N/A   Overcast
5:35 AM 30.9 °F 27.5 °F 13.8 °F 49% 29.95 in 10.0 mi WNW 3.5 mph - N/A   Overcast
5:55 AM 30.9 °F 21.7 °F 13.3 °F 48% 29.96 in 10.0 mi West 11.5 mph 18.4 mph N/A   Overcast
6:15 AM 30.6 °F 23.1 °F 11.8 °F 46% 29.96 in 10.0 mi West 8.1 mph - N/A   Overcast
6:35 AM 30.2 °F 24.3 °F 11.1 °F 45% 29.98 in 10.0 mi West 5.8 mph - N/A   Overcast
6:55 AM 30.2 °F 24.3 °F 10.8 °F 44% 29.99 in 10.0 mi WNW 5.8 mph - N/A   Overcast
7:15 AM 29.8 °F 23.9 °F 10.9 °F 45% 29.99 in 10.0 mi NW 5.8 mph - N/A   Overcast
7:35 AM 29.1 °F 20.6 °F 9.9 °F 45% 30.00 in 10.0 mi WNW 9.2 mph 17.3 mph N/A   Overcast
7:55 AM 28.4 °F 21.2 °F 9.7 °F 46% 30.01 in 10.0 mi WNW 6.9 mph - N/A   Scattered Clouds
8:15 AM 28.2 °F 19.5 °F 9.5 °F 45% 30.01 in 10.0 mi WNW 9.2 mph 19.6 mph N/A   Clear
8:35 AM 28.4 °F 19.1 °F 9.7 °F 46% 30.04 in 10.0 mi WNW 10.4 mph 16.1 mph N/A   Clear
8:55 AM 28.6 °F 18.2 °F 10.2 °F 46% 30.05 in 10.0 mi NW 12.7 mph 21.9 mph N/A   Scattered Clouds
9:15 AM 28.2 °F 20.2 °F 10.0 °F 47% 30.06 in 10.0 mi WNW 8.1 mph 16.1 mph N/A   Scattered Clouds
9:35 AM 28.8 °F 20.2 °F 9.9 °F 45% 30.08 in 10.0 mi NW 9.2 mph 16.1 mph N/A   Scattered Clouds
9:55 AM 28.4 °F 20.4 °F 9.1 °F 44% 30.09 in 10.0 mi NW 8.1 mph 18.4 mph N/A   Clear
10:15 AM 28.9 °F 19.8 °F 7.9 °F 41% 30.09 in 10.0 mi NW 10.4 mph - N/A   Clear
10:35 AM 29.7 °F 21.3 °F 6.3 °F 37% 30.10 in 10.0 mi WNW 9.2 mph - N/A   Clear
10:55 AM 29.8 °F 21.5 °F 6.4 °F 37% 30.10 in 10.0 mi NW 9.2 mph 16.1 mph N/A   Clear
11:15 AM 30.2 °F 22.6 °F 4.3 °F 33% 30.10 in 10.0 mi WNW 8.1 mph - N/A   Clear
11:35 AM 30.6 °F 20.2 °F 4.6 °F 33% 30.09 in 10.0 mi West 13.8 mph 20.7 mph N/A   Clear
11:55 AM 30.7 °F 22.0 °F 4.8 °F 33% 30.08 in 10.0 mi West 10.4 mph 21.9 mph N/A   Clear
12:15 PM 31.3 °F 22.1 °F 5.2 °F 33% 30.08 in 10.0 mi WNW 11.5 mph 19.6 mph N/A   Clear
12:35 PM 31.6 °F 22.6 °F 5.9 °F 34% 30.07 in 10.0 mi NW 11.5 mph 19.6 mph N/A   Clear
12:55 PM 32.0 °F 23.0 °F 6.4 °F 34% 30.05 in 10.0 mi West 11.5 mph - N/A   Clear
1:15 PM 32.7 °F 24.5 °F 7.3 °F 35% 30.05 in 10.0 mi WNW 10.4 mph - N/A   Clear
1:35 PM 32.9 °F 24.1 °F 7.0 °F 34% 30.04 in 10.0 mi SW 11.5 mph 18.4 mph N/A   Clear
1:55 PM 33.8 °F 26.4 °F 7.2 °F 33% 30.03 in 10.0 mi SW 9.2 mph - N/A   Clear
2:15 PM 33.8 °F 25.3 °F 7.5 °F 33% 30.04 in 10.0 mi West 11.5 mph - N/A   Clear
2:35 PM 35.1 °F 26.9 °F 8.6 °F 33% 30.03 in 10.0 mi SW 11.5 mph 16.1 mph N/A   Clear
2:55 PM 35.2 °F 28.8 °F 8.4 °F 33% 30.03 in 10.0 mi WSW 8.1 mph - N/A   Clear
3:15 PM 35.8 °F 29.4 °F 9.1 °F 33% 30.03 in 10.0 mi WSW 8.1 mph - N/A   Clear
3:35 PM 36.0 °F 31.1 °F 9.3 °F 33% 30.03 in 10.0 mi SW 5.8 mph - N/A   Clear
3:55 PM 36.7 °F 28.9 °F 9.7 °F 33% 30.03 in 10.0 mi SW 11.5 mph 17.3 mph N/A   Clear
4:15 PM 36.5 °F 31.8 °F 9.5 °F 33% 30.02 in 10.0 mi WSW 5.8 mph - N/A   Clear
4:35 PM 36.5 °F 29.7 °F 9.9 °F 33% 30.03 in 10.0 mi West 9.2 mph - N/A   Clear
4:55 PM 36.5 °F 31.8 °F 10.0 °F 34% 30.03 in 10.0 mi WSW 5.8 mph - N/A   Clear
5:15 PM 36.5 °F 33.9 °F 10.4 °F 34% 30.04 in 10.0 mi WSW 3.5 mph - N/A   Clear
5:35 PM 36.1 °F - 10.9 °F 35% 30.04 in 10.0 mi Calm Calm - N/A   Clear
5:55 PM 35.1 °F 32.2 °F 11.1 °F 37% 30.04 in 10.0 mi SW 3.5 mph - N/A   Clear
6:15 PM 33.3 °F - 13.5 °F 44% 30.04 in 10.0 mi Calm Calm - N/A   Clear
6:35 PM 31.1 °F - 16.7 °F 55% 30.04 in 10.0 mi Calm Calm - N/A   Clear
6:55 PM 32.0 °F - 14.7 °F 49% 30.04 in 10.0 mi Calm Calm - N/A   Clear
7:20 PM 30.6 °F - 15.4 °F 54% 30.04 in 10.0 mi Calm Calm - N/A   Clear
7:35 PM 30.0 °F - 14.7 °F 53% 30.04 in 10.0 mi Calm Calm - N/A   Clear
7:55 PM 30.0 °F - 16.3 °F 57% 30.04 in 10.0 mi Calm Calm - N/A   Clear
8:15 PM 29.7 °F - 15.8 °F 56% 30.04 in 10.0 mi Calm Calm - N/A   Clear
8:35 PM 28.4 °F - 16.5 °F 61% 30.04 in 10.0 mi Calm Calm - N/A   Clear
8:55 PM 29.3 °F - 15.6 °F 57% 30.03 in 10.0 mi Calm Calm - N/A   Clear
9:15 PM 29.8 °F - 15.6 °F 56% 30.03 in 10.0 mi Calm Calm - N/A   Clear
9:35 PM 29.8 °F 24.9 °F 16.7 °F 58% 30.01 in 10.0 mi South 4.6 mph - N/A   Clear
9:55 PM 31.3 °F 27.9 °F 14.5 °F 50% 30.02 in 10.0 mi South 3.5 mph - N/A   Clear
10:15 PM 32.2 °F 28.9 °F 14.0 °F 47% 30.01 in 10.0 mi South 3.5 mph - N/A   Clear
10:35 PM 32.2 °F 27.7 °F 14.2 °F 48% 30.02 in 10.0 mi SSW 4.6 mph - N/A   Scattered Clouds
10:55 PM 33.8 °F 28.6 °F 15.3 °F 47% 30.04 in 10.0 mi SSW 5.8 mph - N/A   Mostly Cloudy
11:15 PM 33.1 °F 27.7 °F 15.1 °F 48% 30.04 in 10.0 mi SW 5.8 mph - N/A   Overcast
11:35 PM 32.2 °F 26.7 °F 15.6 °F 51% 30.02 in 10.0 mi SSW 5.8 mph - N/A   Mostly Cloudy
11:55 PM 32.7 °F 27.3 °F 14.7 °F 48% 30.02 in 10.0 mi South 5.8 mph - N/A   Scattered Clouds